[[{"header":{"parameterUnit":"m.s-1","parameterCategory":2,"la1":30.2992,"la2":30.254,"lo1":-89.0895,"lo2":-89.0443,"dy":0.0025,"dx":0.0025,"nx":19,"ny":19,"refTime":"2026-05-18T09:00:00:Z","depth":"0","parameterNumber":2,"parameterNumberName":"U-component_of_CURRENTS"},"data":[0,0,0,0.2732,0.2733,0.2775,0.2775,0.2817,0.2817,0,0,0,0,0,0,0,0,0,0,0,0.2717,0.2717,0.2731,0.2733,0.2775,0.2775,0.2816,0.2817,0,0,0,0,0,0,0,0,0,0,0,0.2716,0.2717,0.2718,0.2733,0.2775,0.2775,0.2816,0.2784,0,0,0,0,0,0,0,0,0,0,0.2743,0.2742,0.2717,0.2718,0.2734,0.2775,0.2775,0.2782,0.2786,0.2799,0,0.282,0,0.2828,0.2821,0.2821,0,0,0,0.2717,0.2739,0.2749,0.2718,0.2734,0.2775,0.2751,0.2784,0.2788,0.2804,0.2821,0.2822,0.2829,0.2821,0.2822,0.2993,0.2994,0,0,0.2714,0.2722,0.2747,0.2752,0.2764,0.275,0.2753,0.2787,0.28,0.2821,0.2823,0.2829,0.2822,0.2822,0.2991,0.2993,0,0,0,0.2719,0.2721,0.273,0.2751,0.2764,0.2752,0.2755,0.2798,0.2802,0.2824,0.283,0.2822,0.2823,0.299,0.2992,0.3079,0,0,0,0.2717,0.2725,0.2729,0.2734,0.2764,0.2786,0.2766,0.2799,0.2803,0.283,0.2822,0.2824,0.2988,0.2991,0.3074,0.3092,0,0,0,0.2711,0.2724,0.2734,0.2734,0.276,0.2785,0.2789,0.2799,0.2807,0.2821,0.2824,0.2987,0.299,0.3068,0.3085,0.3208,0,0,0,0.2709,0.2761,0.2735,0.2799,0.276,0.2836,0.2789,0.2837,0.2858,0.2823,0.2988,0.2992,0.3067,0.308,0.3202,0.3087,0.3105,0,0,0.2774,0.2769,0.2807,0.2786,0.2856,0.2828,0.2927,0.2923,0.2915,0.2969,0.2973,0.3075,0.3084,0.3207,0.3283,0.3294,0,0,0,0.2828,0.2852,0.2873,0.2905,0.2939,0.2977,0.2984,0.302,0.3082,0.2947,0.312,0.3123,0.3198,0.3118,0.3128,0.283,0.3007,0.3007,0.3007,0.2888,0.2905,0.2964,0.2992,0.3038,0.3092,0.3148,0.32,0.3174,0.3241,0.3229,0.3423,0.334,0.3346,0.3042,0.3278,0.3278,0.3279,0.3279,0.2955,0.2973,0.3009,0.3068,0.3108,0.3182,0.3299,0.3319,0.3453,0.3383,0.3453,0.3254,0.3363,0.3034,0.3285,0.3284,0.3283,0.3283,0.3282,0.2956,0.2967,0.3008,0.3078,0.3159,0.323,0.336,0.344,0.3525,0.3591,0.3532,0.3527,0.3209,0.3643,0.3644,0.3645,0.3645,0.3646,0.3646,0.2915,0.2962,0.3023,0.3096,0.3154,0.3248,0.3414,0.3519,0.3619,0.3622,0.3621,0.3236,0.3535,0.3487,0.3656,0.3655,0.3653,0.3652,0.3652,0.2912,0.2938,0.3026,0.3093,0.3214,0.3246,0.3429,0.3565,0.3703,0.3738,0.3289,0.3655,0.362,0.3608,0.3564,0.3744,0.3744,0.3744,0.3744,0.2901,0.2922,0.3043,0.314,0.3225,0.3259,0.3292,0.3352,0.3295,0.3128,0.3161,0.2984,0.2994,0.2911,0.2916,0.2853,0.2848,0.2846,0.2845,0.2915,0.2957,0.3035,0.3126,0.3219,0.3211,0.3086,0.2864,0.271,0.2781,0.2776,0.2814,0.2525,0.2564,0.2407,0.2437,0.2325,0,0]},{"header":{"parameterUnit":"m.s-1","parameterCategory":2,"la1":30.2992,"la2":30.254,"lo1":-89.0895,"lo2":-89.0443,"dy":0.0025,"dx":0.0025,"nx":19,"ny":19,"refTime":"2026-05-18T09:00:00:Z","depth":"0","parameterNumber":3,"parameterNumberName":"V-component_of_CURRENTS"},"data":[0,0,0,0.0374,0.0376,0.0421,0.0421,0.0412,0.0412,0,0,0,0,0,0,0,0,0,0,0,0.0354,0.0355,0.0374,0.0376,0.0421,0.0421,0.0412,0.0412,0,0,0,0,0,0,0,0,0,0,0,0.0354,0.0355,0.0355,0.0376,0.0421,0.0421,0.0412,0.0392,0,0,0,0,0,0,0,0,0,0,0.0354,0.035,0.0354,0.0355,0.0377,0.0421,0.0421,0.0391,0.0393,0.0377,0,0.0393,0,0.0409,0.0411,0.0411,0,0,0,0.0363,0.0349,0.0365,0.0355,0.0377,0.0421,0.0397,0.0393,0.0394,0.0379,0.0393,0.0394,0.0409,0.0411,0.0411,0.049,0.0491,0,0,0.036,0.0355,0.0364,0.0366,0.04,0.0396,0.0399,0.0394,0.0397,0.0393,0.0394,0.0409,0.0411,0.0411,0.0489,0.049,0,0,0,0.0362,0.0353,0.037,0.0366,0.0384,0.0397,0.0401,0.0397,0.0404,0.0394,0.0409,0.0411,0.0411,0.0488,0.0489,0.064,0,0,0,0.036,0.0355,0.0369,0.0365,0.0385,0.0401,0.0403,0.0404,0.0405,0.0409,0.0411,0.0411,0.0487,0.0488,0.0634,0.0717,0,0,0,0.035,0.0354,0.0364,0.0365,0.0392,0.0401,0.0408,0.0405,0.0414,0.0411,0.0411,0.0486,0.0488,0.0628,0.0706,0.0863,0,0,0,0.0335,0.0389,0.0364,0.0416,0.0392,0.0463,0.0409,0.0442,0.0447,0.0411,0.0487,0.0489,0.0626,0.07,0.0855,0.0928,0.097,0,0,0.0402,0.0396,0.0426,0.0406,0.0494,0.0455,0.0553,0.0524,0.0476,0.0478,0.048,0.0636,0.0706,0.0861,0.106,0.1098,0,0,0,0.0447,0.0478,0.0494,0.0534,0.0559,0.0624,0.06,0.0605,0.0628,0.0493,0.064,0.068,0.0773,0.08,0.0831,0.0693,0.05,0.0499,0.0499,0.0509,0.0533,0.0611,0.0658,0.07,0.0741,0.0797,0.0801,0.0721,0.0765,0.0805,0.103,0.1059,0.1083,0.0939,0.0798,0.0799,0.0799,0.0799,0.0628,0.0683,0.0716,0.0804,0.0852,0.0921,0.0998,0.0983,0.1092,0.0962,0.1046,0.096,0.1126,0.0959,0.0809,0.0807,0.0806,0.0805,0.0805,0.0668,0.0715,0.0758,0.0886,0.0985,0.1039,0.1216,0.1236,0.1246,0.1329,0.1368,0.1365,0.122,0.1377,0.1378,0.1379,0.138,0.1381,0.1381,0.0703,0.0765,0.0853,0.0972,0.104,0.1176,0.1353,0.1477,0.1595,0.1564,0.1564,0.1289,0.1207,0.1186,0.1398,0.1395,0.1393,0.1391,0.139,0.0795,0.0797,0.0935,0.1011,0.1196,0.1392,0.1556,0.1845,0.1947,0.203,0.1669,0.1698,0.167,0.1642,0.1632,0.1947,0.1947,0.1947,0.1947,0.0828,0.0849,0.1013,0.1141,0.1317,0.1499,0.1892,0.2105,0.205,0.1924,0.1818,0.1654,0.1638,0.1595,0.1568,0.155,0.1837,0.1837,0.1836,0.0891,0.0932,0.1042,0.1166,0.1361,0.164,0.2034,0.2252,0.2002,0.1811,0.1621,0.1626,0.1351,0.1336,0.1229,0.1204,0.1158,0,0]}],[{"header":{"parameterUnit":"m.s-1","parameterCategory":2,"la1":30.2992,"la2":30.254,"lo1":-89.0895,"lo2":-89.0443,"dy":0.0025,"dx":0.0025,"nx":19,"ny":19,"refTime":"2026-05-18T09:00:00:Z","depth":"2","parameterNumber":2,"parameterNumberName":"U-component_of_CURRENTS"},"data":[0,0,0,0.25,0.2501,0.2551,0.2551,0.2642,0.2643,0,0,0,0,0,0,0,0,0,0,0,0.2484,0.2485,0.25,0.2501,0.2551,0.2551,0.2642,0.2643,0,0,0,0,0,0,0,0,0,0,0,0.2484,0.2484,0.2485,0.2502,0.2551,0.2551,0.2642,0.2596,0,0,0,0,0,0,0,0,0,0,0.2543,0.2524,0.2484,0.2485,0.2502,0.2551,0.2551,0.2593,0.2599,0.2629,0,0.2645,0,0.265,0.265,0.2651,0,0,0,0.2494,0.2519,0.2538,0.2485,0.2503,0.2551,0.2527,0.2596,0.2602,0.2637,0.2646,0.2649,0.2652,0.2651,0.2652,0.2795,0.2796,0,0,0.2492,0.2488,0.2533,0.2542,0.2527,0.2525,0.2528,0.2599,0.2609,0.2646,0.2651,0.2653,0.2652,0.2653,0.2795,0.2796,0,0,0,0.2488,0.2486,0.2502,0.2538,0.2548,0.2527,0.2531,0.2605,0.2612,0.2652,0.2654,0.2652,0.2654,0.2794,0.2795,0.2923,0,0,0,0.2486,0.2485,0.2501,0.2498,0.2547,0.2573,0.2535,0.2607,0.2615,0.2654,0.2652,0.2655,0.2793,0.2794,0.2918,0.2893,0,0,0,0.248,0.2484,0.2494,0.2498,0.2523,0.2572,0.2582,0.2608,0.2617,0.2651,0.2655,0.2792,0.2794,0.2913,0.2888,0.2935,0,0,0,0.2468,0.2482,0.2494,0.2513,0.2523,0.257,0.2582,0.2639,0.2674,0.2653,0.2793,0.2795,0.2912,0.2884,0.2931,0.2772,0.2776,0,0,0.2475,0.2483,0.2493,0.2504,0.2555,0.2562,0.264,0.2702,0.271,0.2768,0.2772,0.292,0.2887,0.2934,0.2876,0.2876,0,0,0,0.2487,0.2488,0.2507,0.2538,0.2584,0.265,0.2702,0.2736,0.2838,0.2739,0.292,0.2893,0.292,0.2817,0.2818,0.2803,0.2803,0.2803,0.2803,0.247,0.2497,0.2528,0.2574,0.2627,0.2729,0.2811,0.2873,0.2887,0.296,0.3004,0.3118,0.3014,0.3012,0.3049,0.305,0.305,0.3051,0.3051,0.2471,0.2489,0.2548,0.2587,0.2686,0.2768,0.2919,0.2987,0.3116,0.3082,0.3106,0.2961,0.3019,0.3061,0.3059,0.3058,0.3057,0.3056,0.3055,0.2449,0.247,0.2497,0.2596,0.2681,0.2803,0.2972,0.3092,0.3177,0.3259,0.3117,0.3112,0.3156,0.3284,0.3284,0.3284,0.3285,0.3285,0.3285,0.2434,0.2465,0.2489,0.258,0.2629,0.276,0.2982,0.3081,0.3139,0.3175,0.3175,0.3195,0.3187,0.3167,0.3287,0.3287,0.3286,0.3286,0.3286,0.2384,0.2403,0.2457,0.2483,0.2576,0.2582,0.2815,0.2922,0.3046,0.2992,0.3139,0.3141,0.3062,0.3057,0.3032,0.311,0.311,0.311,0.311,0.2334,0.2351,0.2383,0.2399,0.2466,0.2481,0.2451,0.2474,0.2639,0.2712,0.2728,0.2647,0.2664,0.2556,0.2563,0.2525,0.2472,0.247,0.2469,0.2272,0.2308,0.2289,0.2333,0.2366,0.2341,0.2171,0.197,0.2133,0.2439,0.2573,0.3076,0.3001,0.301,0.2876,0.2876,0.2827,0,0]},{"header":{"parameterUnit":"m.s-1","parameterCategory":2,"la1":30.2992,"la2":30.254,"lo1":-89.0895,"lo2":-89.0443,"dy":0.0025,"dx":0.0025,"nx":19,"ny":19,"refTime":"2026-05-18T09:00:00:Z","depth":"2","parameterNumber":3,"parameterNumberName":"V-component_of_CURRENTS"},"data":[0,0,0,0.0227,0.0228,0.0268,0.0269,0.0288,0.0288,0,0,0,0,0,0,0,0,0,0,0,0.0217,0.0218,0.0227,0.0228,0.0268,0.0269,0.0288,0.0288,0,0,0,0,0,0,0,0,0,0,0,0.0217,0.0218,0.0218,0.0228,0.0268,0.0269,0.0288,0.0264,0,0,0,0,0,0,0,0,0,0,0.0228,0.0213,0.0217,0.0218,0.0229,0.0268,0.0269,0.0263,0.0265,0.0262,0,0.0278,0,0.0284,0.0289,0.0289,0,0,0,0.0223,0.0211,0.0236,0.0218,0.0229,0.0268,0.0249,0.0265,0.0267,0.0265,0.0278,0.0279,0.0284,0.0289,0.0289,0.0352,0.0352,0,0,0.022,0.0208,0.0234,0.0238,0.0252,0.0247,0.025,0.0266,0.0265,0.0278,0.028,0.0285,0.0289,0.0289,0.0351,0.0352,0,0,0,0.0218,0.0207,0.0231,0.0237,0.0247,0.0249,0.0252,0.0264,0.0277,0.028,0.0285,0.0289,0.0289,0.035,0.0351,0.0432,0,0,0,0.0216,0.0206,0.023,0.0221,0.0247,0.0257,0.0249,0.0276,0.0278,0.0285,0.0289,0.029,0.035,0.0351,0.0429,0.0493,0,0,0,0.0213,0.0205,0.0217,0.0221,0.0242,0.0258,0.027,0.0277,0.0281,0.0289,0.029,0.0349,0.0351,0.0426,0.0487,0.0559,0,0,0,0.0189,0.0207,0.0216,0.0244,0.0242,0.0291,0.027,0.0301,0.0314,0.0289,0.035,0.0351,0.0425,0.0483,0.0554,0.0647,0.0675,0,0,0.0199,0.0208,0.0228,0.0238,0.0304,0.0285,0.0342,0.0349,0.0331,0.0339,0.0341,0.043,0.0486,0.0558,0.0725,0.075,0,0,0,0.0223,0.0242,0.0263,0.0304,0.0338,0.0388,0.0381,0.0384,0.0413,0.0346,0.0435,0.0468,0.0511,0.0557,0.0578,0.0358,0.0357,0.0357,0.0357,0.0232,0.0267,0.0321,0.0372,0.041,0.0457,0.0499,0.0504,0.0461,0.049,0.0536,0.0653,0.0703,0.072,0.0523,0.0523,0.0524,0.0524,0.0524,0.0278,0.0327,0.0378,0.0436,0.0503,0.0557,0.0616,0.0614,0.0682,0.0612,0.0648,0.0643,0.0748,0.0531,0.0529,0.0528,0.0528,0.0527,0.0527,0.0313,0.0342,0.0375,0.0468,0.0575,0.0637,0.0787,0.0792,0.078,0.0833,0.0877,0.0876,0.072,0.0845,0.0846,0.0847,0.0847,0.0848,0.0848,0.0336,0.0375,0.0426,0.0513,0.0592,0.0731,0.0882,0.0963,0.102,0.1004,0.1003,0.0762,0.0752,0.0739,0.0857,0.0856,0.0854,0.0854,0.0853,0.0379,0.039,0.046,0.0522,0.0707,0.0924,0.104,0.1241,0.127,0.1311,0.1098,0.1089,0.108,0.1063,0.1058,0.1252,0.1252,0.1252,0.1252,0.0401,0.0415,0.0512,0.0624,0.0803,0.1018,0.1329,0.14,0.136,0.1289,0.1287,0.1212,0.1197,0.1187,0.1167,0.116,0.1381,0.1381,0.1381,0.0425,0.0449,0.0529,0.0649,0.0858,0.1169,0.1488,0.1519,0.1373,0.1376,0.121,0.128,0.116,0.114,0.1111,0.1084,0.1067,0,0]}],[{"header":{"parameterUnit":"m.s-1","parameterCategory":2,"la1":30.2992,"la2":30.254,"lo1":-89.0895,"lo2":-89.0443,"dy":0.0025,"dx":0.0025,"nx":19,"ny":19,"refTime":"2026-05-18T09:00:00:Z","depth":"4","parameterNumber":2,"parameterNumberName":"U-component_of_CURRENTS"},"data":[0,0,0,0.14,0.1402,0.1506,0.1506,0.1606,0.1607,0,0,0,0,0,0,0,0,0,0,0,0.1375,0.1376,0.14,0.1403,0.1506,0.1506,0.1606,0.1607,0,0,0,0,0,0,0,0,0,0,0,0.1375,0.1376,0.1377,0.1403,0.1506,0.1506,0.1606,0.1536,0,0,0,0,0,0,0,0,0,0,0.144,0.143,0.1376,0.1377,0.1403,0.1506,0.1506,0.1533,0.154,0.155,0,0.1579,0,0.1591,0.1613,0.1613,0,0,0,0.1403,0.1424,0.1442,0.1377,0.1404,0.1505,0.1459,0.1537,0.1546,0.156,0.1581,0.1585,0.1593,0.1614,0.1614,0.1722,0.1723,0,0,0.1397,0.1401,0.1436,0.1448,0.1448,0.1456,0.1463,0.1543,0.1564,0.1581,0.1587,0.1594,0.1614,0.1615,0.1722,0.1722,0,0,0,0.138,0.1397,0.1414,0.1443,0.1463,0.1459,0.1467,0.1561,0.1564,0.1588,0.1595,0.1615,0.1616,0.1721,0.1722,0.1746,0,0,0,0.1377,0.1387,0.1412,0.1416,0.1461,0.1519,0.1483,0.1559,0.1568,0.1595,0.1615,0.1617,0.172,0.1721,0.1744,0.1761,0,0,0,0.1367,0.1386,0.1401,0.1415,0.1458,0.1518,0.1527,0.1561,0.1572,0.1614,0.1617,0.172,0.1721,0.1742,0.1758,0.1794,0,0,0,0.1362,0.1365,0.1402,0.1412,0.1457,0.1491,0.1527,0.1573,0.1609,0.1615,0.1721,0.1722,0.1742,0.1756,0.1792,0.1533,0,0,0,0.1345,0.1364,0.1364,0.1398,0.1416,0.1476,0.1524,0.1594,0.1632,0.169,0.1693,0.1745,0.1758,0.1794,0.1608,0,0,0,0,0.1343,0.135,0.1361,0.1392,0.1429,0.1504,0.1568,0.1615,0.1708,0.166,0.1763,0.1771,0.1793,0.1636,0.1728,0.1728,0.1727,0.1727,0.1727,0.1323,0.1336,0.1342,0.1379,0.1424,0.1529,0.1599,0.1685,0.1711,0.1771,0.1804,0.1867,0.1703,0.1816,0.1816,0.1816,0.1816,0.1816,0.1816,0.1284,0.1272,0.1332,0.1347,0.144,0.1514,0.1651,0.1716,0.1844,0.1847,0.1867,0.1688,0.1819,0.1819,0.1818,0.1818,0.1818,0.1817,0.1817,0.1246,0.1236,0.1274,0.131,0.1403,0.152,0.16,0.1746,0.1867,0.1917,0.1767,0.1895,0.1878,0.1939,0.194,0.194,0.194,0.194,0.194,0.1179,0.1205,0.1195,0.1265,0.1296,0.1398,0.1597,0.1672,0.1831,0.178,0.1942,0.1909,0.1905,0.1887,0.1944,0.1944,0.1943,0.1943,0.1942,0.1094,0.1112,0.1064,0.1076,0.1127,0.1193,0.1411,0.1538,0.1619,0.1639,0.1699,0.171,0.1681,0.1684,0.1656,0.1648,0.1644,0.1641,0,0.1021,0.1031,0.0922,0.0864,0.0873,0.1027,0.1094,0.1241,0.1418,0.1369,0.1604,0.1664,0.1673,0.1632,0.1629,0.1591,0,0,0,0.0954,0.0914,0.0803,0.0734,0.0721,0.0877,0.1096,0.11,0.1409,0.141,0.1563,0.1584,0.1747,0.1955,0.1939,0.1934,0.1904,0,0]},{"header":{"parameterUnit":"m.s-1","parameterCategory":2,"la1":30.2992,"la2":30.254,"lo1":-89.0895,"lo2":-89.0443,"dy":0.0025,"dx":0.0025,"nx":19,"ny":19,"refTime":"2026-05-18T09:00:00:Z","depth":"4","parameterNumber":3,"parameterNumberName":"V-component_of_CURRENTS"},"data":[0,0,0,0.0142,0.0143,0.0179,0.0179,0.0209,0.0209,0,0,0,0,0,0,0,0,0,0,0,0.013,0.013,0.0142,0.0143,0.0179,0.0179,0.0209,0.0209,0,0,0,0,0,0,0,0,0,0,0,0.013,0.013,0.013,0.0143,0.0179,0.0179,0.0209,0.0185,0,0,0,0,0,0,0,0,0,0,0.0151,0.014,0.013,0.013,0.0143,0.0179,0.0179,0.0184,0.0187,0.0188,0,0.0197,0,0.0204,0.0211,0.0211,0,0,0,0.0141,0.0137,0.0152,0.013,0.0143,0.0179,0.0162,0.0186,0.0188,0.0191,0.0198,0.0199,0.0205,0.0211,0.0211,0.0252,0.0252,0,0,0.0139,0.0131,0.015,0.0154,0.0157,0.0161,0.0163,0.0187,0.0189,0.0198,0.02,0.0205,0.0211,0.0211,0.0252,0.0252,0,0,0,0.0134,0.013,0.0144,0.0152,0.0161,0.0162,0.0165,0.0188,0.0194,0.02,0.0206,0.0211,0.0212,0.0251,0.0252,0.0291,0,0,0,0.0133,0.0127,0.0143,0.0138,0.016,0.0176,0.0165,0.0192,0.0195,0.0205,0.0211,0.0212,0.0251,0.0251,0.029,0.0326,0,0,0,0.0127,0.0126,0.0133,0.0138,0.0155,0.0176,0.0183,0.0193,0.0199,0.0211,0.0212,0.0251,0.0251,0.0288,0.0323,0.0358,0,0,0,0.0115,0.0134,0.0133,0.0158,0.0154,0.0201,0.0183,0.0213,0.0228,0.0212,0.0251,0.0252,0.0288,0.0321,0.0355,0.0364,0,0,0,0.0134,0.0136,0.0152,0.0153,0.0203,0.0196,0.0242,0.0248,0.0234,0.0241,0.0242,0.029,0.0323,0.0357,0.0398,0,0,0,0,0.0155,0.0169,0.0185,0.0212,0.0239,0.0272,0.0275,0.0273,0.028,0.0246,0.0291,0.0311,0.0331,0.0329,0.0255,0.0254,0.0254,0.0254,0.0254,0.0169,0.019,0.0232,0.0264,0.0294,0.0325,0.0344,0.0341,0.0317,0.0321,0.0343,0.0399,0.0397,0.0332,0.0332,0.0332,0.0332,0.0333,0.0333,0.0209,0.0239,0.027,0.032,0.0356,0.0397,0.0417,0.0404,0.0419,0.0381,0.0398,0.0371,0.0337,0.0336,0.0335,0.0335,0.0334,0.0334,0.0334,0.0225,0.0245,0.0275,0.0349,0.042,0.0461,0.054,0.0521,0.0475,0.0488,0.0487,0.0436,0.0434,0.0495,0.0496,0.0496,0.0496,0.0496,0.0497,0.0228,0.026,0.0321,0.0394,0.0471,0.0562,0.0618,0.0632,0.0587,0.0553,0.051,0.0454,0.0449,0.0444,0.0501,0.0501,0.05,0.05,0.0499,0.0255,0.027,0.0364,0.0443,0.0615,0.0685,0.0733,0.0722,0.0728,0.0684,0.0581,0.0576,0.0568,0.0561,0.0559,0.0653,0.0653,0.0654,0,0.0272,0.0284,0.0429,0.0575,0.072,0.0782,0.0825,0.0815,0.0725,0.0711,0.0716,0.0603,0.0597,0.0589,0.0583,0.0582,0,0,0,0.0299,0.0343,0.0461,0.0607,0.079,0.0829,0.084,0.0821,0.0732,0.0722,0.0663,0.0661,0.0597,0.0516,0.0492,0.0485,0.0476,0,0]}]]